Regional Weather Roundup
Issued by NWS

Home | Current Version | Previous Version | Graphics & Text | Print | Product List | Glossary On
Versions: 1 2 3 4 5 6 7 8 9 10 11 12 13 14 15 16 17 18 19 20 21 22 23 24 25 26 27 28 29 30 31 32 33 34 35 36 37 38 39 40 41 42 43 44 45 46 47 48 49 50
000
ASUS43 KMKX 311021
RWRWI

WISCONSIN REGIONAL WEATHER ROUNDUP
NATIONAL WEATHER SERVICE MILWAUKEE/SULLIVAN WI
500 AM CDT THU JUL 31 2014

NOTE: "FAIR" INDICATES FEW OR NO CLOUDS BELOW 12,000 FEET WITH NO
SIGNIFICANT WEATHER AND/OR OBSTRUCTIONS TO VISIBILITY.

WIZ001-002-006>008-014>016-023>028-311100-
NORTHWEST WISCONSIN

CITY           SKY/WX    TMP DP  RH WIND       PRES   REMARKS
SUPERIOR ARPT  CLEAR     55  55  99 CALM      29.98S
ASHLAND        CLEAR     56  54  93 SW5       29.97S
HAYWARD        FOG       53  53 100 SW3       30.00R VSB 1/4
SIREN          CLEAR     60  56  87 NW5       30.01S
RICE LAKE      FOG       56  55  96 CALM      30.03R VSB 1/4
LADYSMITH      CLEAR     55  54  96 CALM      30.02R FOG
EAU CLAIRE     CLEAR     59  57  93 SW6       30.00S
MENOMONIE      SUNNY     60  56  87 CALM      30.01S
NEW RICHMOND   CLEAR     57  56  96 SW3       30.03S
OSCEOLA        CLEAR     54  54 100 CALM      30.05S
$$

WIZ003>005-009-010-017-018-311100-
NORTH CENTRAL WISCONSIN

CITY           SKY/WX    TMP DP  RH WIND       PRES   REMARKS
WOODRUFF       HAZE      57  52  82 CALM      29.99S VSB<1/4
RHINELANDER    FOG       51  51 100 W5        30.00S VSB 1/4
EAGLE RIVER    FOG       47  47 100 CALM      29.98S VSB 1/4
LAND O LAKES   FOG       45  45 100 CALM      30.00R VSB 1/4
PHILLIPS       MOCLDY    53  53 100 CALM      29.99S
TOMAHAWK       FOG       46  45  97 CALM      30.00S VSB 1/4
MEDFORD        CLEAR     57  56  97 CALM      30.00S
MERRILL        FOG       50  50 100 CALM      29.99S VSB 1/2
$$

WIZ029-030-035-036-043>047-311100-
CENTRAL WISCONSIN

CITY           SKY/WX    TMP DP  RH WIND       PRES   REMARKS
WAUSAU         PTCLDY    57  56  96 CALM      29.98R
MOSINEE        CLEAR     55  55 100 W6        30.00S
MARSHFIELD     CLEAR     58  56  93 W6        30.00R FOG
STEVENS POINT  PTCLDY    56  55  96 CALM      30.00S
WAUPACA        CLEAR     60  58  92 CALM      29.99S
WAUTOMA        PTCLDY    58  56  93 CALM      30.00S
WISC RAPIDS    FOG       57  56  96 CALM      30.01R VSB 1/4
CAMP DOUGLAS   FOG       54  54 100 CALM      30.00S VSB 3/4
$$

WIZ011>013-019>022-031-037>040-048>050-311100-
NORTHEAST WISCONSIN

CITY           SKY/WX    TMP DP  RH WIND       PRES   REMARKS
ANTIGO         FOG       49  49 100 CALM      29.99S VSB 1/2
STURGEON BAY   CLEAR     57  54  88 CALM      29.97S
GREEN BAY      CLEAR     55  54  96 CALM      29.96S
MANITOWOC      CLEAR     60  57  89 W6        29.97R
APPLETON       PTCLDY    55  55 100 W9        29.99R
CLINTONVILLE   CLEAR     52  50  93 CALM      29.98R FOG
OSHKOSH        PTCLDY    60  57  89 W3        29.98S
$$

WIZ032>034-041-042-053>061-311100-
SOUTHWEST WISCONSIN

CITY           SKY/WX    TMP DP  RH WIND       PRES   REMARKS
LA CROSSE      CLEAR     62  59  90 SE3       30.01S
SPARTA         CLEAR     52  52  97 CALM      30.02S
VIROQUA        FAIR      58  58 100 W5        30.04R
BOSCOBEL       CLEAR     59  56  89 CALM      30.03S FOG
PRAIRIE DU CHI CLEAR     58  55  91 CALM      30.03S
PLATTEVILLE    FAIR      57  56  96 SW6       30.05R
$$

WIZ056-057-062-063-064-067-068-311100-
SOUTH CENTRAL WISCONSIN

CITY           SKY/WX    TMP DP  RH WIND       PRES   REMARKS
BARABOO/DELLS  CLEAR     58  56  91 SW3       30.00S
LONE ROCK      FOG       58  54  86 CALM      30.03R VSB 1/4
WATERTOWN      PTCLDY    57  55  92 CALM      30.00S
MADISON        CLEAR     64  57  78 VRB3      30.01R
MIDDLETON      FAIR      58  56  95 CALM      30.02S
MONROE         CLEAR     61  55  82 W13       30.03R
JANESVILLE     CLEAR     59  52  77 CALM      30.02S
$$

WIZ051-052-058>065-066-070>072-311100-
SOUTHEAST WISCONSIN

CITY           SKY/WX    TMP DP  RH WIND       PRES   REMARKS
MILWAUKEE      MOCLDY    62  53  72 W8        29.99F
WAUKESHA       MOCLDY    55  52  88 CALM      30.01S
MILWAUKEE/TIMM CLOUDY    59  54  82 W5        30.00S
RACINE         CLEAR     60  55  83 SW7       30.02R
BURLINGTON     PTCLDY    55  53  94 SW6       30.01S
KENOSHA        CLEAR     58  57  97 SW6       30.01S FOG
FOND DU LAC    PTCLDY    58  55  90 CALM      29.99S
SHEBOYGAN      CLEAR     56  54  93 W3        29.97S
WEST BEND      CLOUDY    61  54  77 SW3       29.99S
JUNEAU         MOCLDY    59  55  85 SW3       30.01R
$$

LSZ147-162-311100-
LAKE SUPERIOR

STATION/POSITION TIME  TEMP    WIND        PRES    WAVE
                       AIR SEA DIR/SP/G            HT/PER
                 (UTC) (F)     (DEG/KT/KT) (MB)    (FT/S)
W MID LAKE BUOY  0950   49 41  270/  8/  8 1014.0R   0
PORT WING        0900   57     140/  2/  3 1014.9F
SAXON HARBOR     0900          180/  3/  6 1014.6S
$$

LMZ867-665-643>646-311100-
LAKE MICHIGAN

STATION/POSITION TIME  TEMP    WIND        PRES    WAVE
                       AIR SEA DIR/SP/G            HT/PER
                 (UTC) (F)     (DEG/KT/KT) (MB)    (FT/S)
N MID LAKE BUOY  0950   56 53  240/  4/  4 1013.5S   1
NORTHPORT PIER   0900   56     260/  2/  3 1014.2S
SISTER BAY       0856   60     310/  7/  8   N/A
ALGOMA LAKESHORE 0851          330/  6/  8   N/A
KEWAUNEE LAKESHO 1000   56     300/  2/  4 1013.8F
SHEBOYGAN LAKESH 1000   63     280/ 10/ 11 1014.9S
PORT WASHINGTON  0940   63     290/  5/  7 1015.6S
ATWATER BUOY     1000   65     250/  8     1016.5S
MILWAUKEE LAKESH 1000   64     280/  6/  9   N/A
S MID LAKE BUOY  0950   62 60  230/ 14/ 14 1015.5S   1/ 3
KENOSHA   LAKESH 1000   63     250/  8/ 11 1015.9S
$$

TC  - TEMPERATURE IN CELSIUS
VSB - VISIBILITY IN STATUTE MILES
WCI - WIND CHILL INDEX
HX  - HEAT INDEX




USA.gov is the U.S. government's official web portal to all federal, state and local government web resources and services.